Regional Weather Roundup
Issued by NWS Green Bay, WI

Home | Current Version | Previous Version | Graphics & Text | Print | Product List | Glossary Off
Versions: 1 2 3 4 5 6 7 8 9 10 11 12 13 14 15 16 17 18 19 20 21 22 23 24 25 26 27 28 29 30 31 32 33 34 35 36 37 38 39 40 41 42 43 44 45 46 47 48 49 50

000
ASUS43 KGRB 162359
RWRGRB

NORTH-CENTRAL AND NORTHEAST WISCONSIN REGIONAL WEATHER ROUNDUP
NATIONAL WEATHER SERVICE GREEN BAY WI
700 PM CDT WED APR 16 2014

WIZ005-009-010>012-018-019-170100-
NORTH CENTRAL WISCONSIN

CITY           SKY/WX    TMP DP  RH WIND       PRES   REMARKS
IRONWOOD       CLOUDY    28  25  86 E9        30.10R VSB 1
MANITOWISH WTR NOT AVBL
ARBOR VITAE    NOT AVBL
EAGLE RIVER    NOT AVBL
LAND O LAKES   NOT AVBL
RHINELANDER    FLURRIES  30  25  81 E21       30.07F
PHILLIPS       NOT AVBL
ANTIGO         NOT AVBL
TOMAHAWK       NOT AVBL
MERRILL        NOT AVBL
$$

WIZ013-073-170100-
NORTHEAST WISCONSIN

CITY           SKY/WX    TMP DP  RH WIND       PRES   REMARKS
IRON MOUNTAIN  CLOUDY    30  26  85 SE16G24   30.16F
MARINETTE      CLOUDY    34  28  80 SE14G23   30.22S
$$

WIZ017-030-035>037-045-170100-
CENTRAL WISCONSIN

CITY           SKY/WX    TMP DP  RH WIND       PRES   REMARKS
MEDFORD        NOT AVBL
WAUSAU         CLOUDY    36  28  73 E18G25    30.03S
MOSINEE        CLOUDY    37  28  70 E15G23    30.04S
MARSHFIELD     CLOUDY    40  30  67 E15       29.99R
WISC RAPIDS    CLOUDY    44  30  57 SE12      30.01F
STEVENS POINT  NOT AVBL
WAUPACA        NOT AVBL
SHAWANO        NOT AVBL
CLINTONVILLE   NOT AVBL
$$

WIZ038-039-048-051-170100-
FOX VALLEY

CITY           SKY/WX    TMP DP  RH WIND       PRES   REMARKS
NWS GREEN BAY  CLOUDY    38  24  57 SE21      30.16F
APPLETON       CLOUDY    37  25  60 SE20G28   30.11F
OSHKOSH        CLOUDY    40  25  55 SE14G28   30.10S
FOND DU LAC    CLOUDY    41  24  51 SE22G29   30.10F
$$

WIZ022-050-052-170100-
EAST CENTRAL WISCONSIN

CITY           SKY/WX    TMP DP  RH WIND       PRES   REMARKS
STURGEON BAY   CLOUDY    34  27  75 E13G20    30.22F
MANITOWOC      NOT AVBL
SHEBOYGAN      CLOUDY    39  23  52 SE15G24   30.16F
$$

LMZ563-521-522-541>543-170100-
LAKESHORE

STATION/POSITION TIME  TEMP    WIND        PRES    VSBY  WAVE
                       AIR SEA DIR/SP/G                  HT/PER
                 (UTC) (F)     (DEG/KT/KT) (MB)    (MI)  (FT/S)
SHEBOYGAN LKSHOR 2300   38     120/ 21/ 22 1022.8F
NORTHPORT PIER   2300   31     100/ 21/ 25 1024.4F
SISTER BAY LKSHO 2300   32     120/ 17/ 24   N/A
MENOMINEE LKSHOR 2300   33     100/ 16/ 19 1023.7F
$$



USA.gov is the U.S. government's official web portal to all federal, state and local government web resources and services.